BAW788 EGLL-ESGG

Flight info

Callsign BAW788
Flight time 1h 28m
Altitude 37000
Route BPK6J BPK Q295 PAAVO M604 GIVPO DCT LARGA DCT SOPTO DCT AAL N607 MAKUR MAKUR4T
Aircraft A319/M-SDE3FGHIRWY/LB1

Departure

Time 2026-05-04 13:02
Airport London Heathrow Airport (EGLL)

Arrival

Time 2026-05-04 14:30
Airport Göteborg Landvetter Airport (ESGG)
Time Latitude Longitude Altitude Speed Heading
2026-05-04 12:46 51.46826 -0.45604 86 ft 0 kts 360°
2026-05-04 12:52 51.46817 -0.45604 90 ft 4 kts 360°
2026-05-04 12:52 51.46790 -0.45604 89 ft 4 kts 360°
2026-05-04 12:52 51.46769 -0.45604 90 ft 4 kts 11°
2026-05-04 12:53 51.46751 -0.45622 87 ft 4 kts 76°
2026-05-04 12:53 51.46749 -0.45662 86 ft 4 kts 90°
2026-05-04 12:53 51.46749 -0.45672 89 ft 0 kts 90°
2026-05-04 12:56 51.46749 -0.45660 89 ft 2 kts 90°
2026-05-04 12:56 51.46749 -0.45621 86 ft 5 kts 89°
2026-05-04 12:57 51.46750 -0.45556 86 ft 7 kts 89°
2026-05-04 12:57 51.46751 -0.45465 86 ft 9 kts 89°
2026-05-04 12:57 51.46751 -0.45349 86 ft 11 kts 90°
2026-05-04 12:57 51.46751 -0.45210 86 ft 14 kts 91°
2026-05-04 12:58 51.46750 -0.45043 86 ft 16 kts 89°
2026-05-04 12:58 51.46751 -0.44850 86 ft 18 kts 89°
2026-05-04 12:58 51.46752 -0.44634 86 ft 21 kts 90°
2026-05-04 12:58 51.46753 -0.44393 86 ft 23 kts 89°
2026-05-04 12:59 51.46754 -0.44137 86 ft 22 kts 89°
2026-05-04 12:59 51.46771 -0.43898 86 ft 20 kts 92°
2026-05-04 12:59 51.46771 -0.43683 86 ft 17 kts 89°
2026-05-04 12:59 51.46741 -0.43606 86 ft 6 kts 177°
2026-05-04 13:00 51.46691 -0.43604 87 ft 9 kts 179°
2026-05-04 13:00 51.46618 -0.43603 86 ft 12 kts 180°
2026-05-04 13:00 51.46527 -0.43610 87 ft 14 kts 197°
2026-05-04 13:00 51.46494 -0.43709 86 ft 0 kts 269°
2026-05-04 13:01 51.46494 -0.43718 86 ft 0 kts 269°
2026-05-04 13:01 51.46494 -0.43790 86 ft 28 kts 269°
2026-05-04 13:01 51.46491 -0.44505 88 ft 97 kts 270°
2026-05-04 13:01 51.46487 -0.45906 89 ft 152 kts 270°
2026-05-04 13:02 51.46470 -0.47794 338 ft 176 kts 271°
2026-05-04 13:02 51.46463 -0.49778 985 ft 179 kts 271°
2026-05-04 13:02 51.46681 -0.51742 1569 ft 187 kts 297°
2026-05-04 13:02 51.47412 -0.53536 2187 ft 194 kts 304°
2026-05-04 13:03 51.48077 -0.55456 2852 ft 199 kts 298°
2026-05-04 13:03 51.48711 -0.57482 3394 ft 212 kts 297°
2026-05-04 13:03 51.49401 -0.59705 3796 ft 234 kts 297°
2026-05-04 13:03 51.50167 -0.62161 4288 ft 258 kts 297°
2026-05-04 13:04 51.51323 -0.64416 5109 ft 270 kts 326°
2026-05-04 13:04 51.53112 -0.65369 5774 ft 278 kts 356°
2026-05-04 13:04 51.55035 -0.64996 6386 ft 282 kts 18°
2026-05-04 13:04 51.56718 -0.63463 7305 ft 285 kts 40°
2026-05-04 13:05 51.57642 -0.61898 7910 ft 288 kts 53°
2026-05-04 13:05 51.59213 -0.58407 9122 ft 294 kts 54°
2026-05-04 13:05 51.60448 -0.55747 10020 ft 299 kts 53°
2026-05-04 13:05 51.61740 -0.52999 10457 ft 320 kts 54°
2026-05-04 13:06 51.62939 -0.49833 10767 ft 341 kts 64°
2026-05-04 13:06 51.63664 -0.47505 11172 ft 348 kts 64°
2026-05-04 13:06 51.64754 -0.43991 11914 ft 353 kts 64°
2026-05-04 13:06 51.65853 -0.40433 12742 ft 357 kts 64°
2026-05-04 13:07 51.66963 -0.36834 13516 ft 361 kts 64°
2026-05-04 13:07 51.68087 -0.33190 14218 ft 365 kts 64°
2026-05-04 13:07 51.69219 -0.29510 14902 ft 368 kts 64°
2026-05-04 13:07 51.70361 -0.25795 15585 ft 371 kts 65°
2026-05-04 13:08 51.71509 -0.22047 16265 ft 374 kts 65°
2026-05-04 13:08 51.72667 -0.18265 16948 ft 378 kts 65°
2026-05-04 13:08 51.73830 -0.14451 17630 ft 381 kts 65°
2026-05-04 13:08 51.74971 -0.10572 18296 ft 384 kts 66°
2026-05-04 13:09 51.76093 -0.06644 18887 ft 387 kts 67°
2026-05-04 13:09 51.77202 -0.02729 19467 ft 390 kts 67°
2026-05-04 13:09 51.78353 0.01331 20009 ft 394 kts 66°
2026-05-04 13:09 51.79488 0.05315 20583 ft 398 kts 66°
2026-05-04 13:10 51.80655 0.09399 21151 ft 402 kts 66°
2026-05-04 13:10 51.81837 0.13521 21715 ft 406 kts 66°
2026-05-04 13:10 51.83030 0.17674 22269 ft 410 kts 66°
2026-05-04 13:10 51.84235 0.21873 22813 ft 413 kts 66°
2026-05-04 13:11 51.85444 0.26107 23343 ft 416 kts 66°
2026-05-04 13:11 51.86657 0.30380 23824 ft 420 kts 66°
2026-05-04 13:11 51.87878 0.34690 24256 ft 423 kts 66°
2026-05-04 13:11 51.89108 0.39043 24682 ft 426 kts 66°
2026-05-04 13:12 51.90344 0.43423 25113 ft 430 kts 66°
2026-05-04 13:12 51.91591 0.47843 25536 ft 433 kts 66°
2026-05-04 13:12 51.92845 0.52295 25920 ft 437 kts 66°
2026-05-04 13:12 51.94109 0.56793 26322 ft 440 kts 67°
2026-05-04 13:13 51.95379 0.61329 26738 ft 444 kts 67°
2026-05-04 13:13 51.96655 0.65906 27153 ft 447 kts 67°
2026-05-04 13:13 51.97935 0.70516 27560 ft 450 kts 67°
2026-05-04 13:13 51.99225 0.75158 27964 ft 453 kts 67°
2026-05-04 13:14 52.00526 0.79832 28375 ft 456 kts 67°
2026-05-04 13:14 52.01835 0.84544 28763 ft 459 kts 67°
2026-05-04 13:14 52.03151 0.89291 29149 ft 462 kts 67°
2026-05-04 13:14 52.04475 0.94065 29520 ft 465 kts 67°
2026-05-04 13:15 52.05807 0.98876 29883 ft 468 kts 67°
2026-05-04 13:15 52.07142 1.03725 30219 ft 471 kts 67°
2026-05-04 13:15 52.08480 1.08603 30536 ft 474 kts 67°
2026-05-04 13:15 52.09823 1.13502 30859 ft 476 kts 66°
2026-05-04 13:16 52.11416 1.18235 31170 ft 479 kts 57°
2026-05-04 13:16 52.13433 1.22556 31515 ft 480 kts 47°
2026-05-04 13:16 52.15935 1.26131 31951 ft 479 kts 33°
2026-05-04 13:16 52.18760 1.28989 32400 ft 477 kts 30°
2026-05-04 13:17 52.21599 1.31775 32860 ft 476 kts 30°
2026-05-04 13:17 52.24439 1.34532 33311 ft 475 kts 30°
2026-05-04 13:17 52.27277 1.37269 33765 ft 473 kts 30°
2026-05-04 13:17 52.30109 1.40000 34232 ft 471 kts 31°
2026-05-04 13:18 52.32919 1.42720 34646 ft 469 kts 31°
2026-05-04 13:18 52.35722 1.45450 35038 ft 468 kts 31°
2026-05-04 13:18 52.38510 1.48195 35409 ft 467 kts 31°
2026-05-04 13:18 52.41252 1.50929 35696 ft 468 kts 31°
2026-05-04 13:19 52.44030 1.53722 35976 ft 469 kts 31°
2026-05-04 13:19 52.46810 1.56530 36290 ft 469 kts 31°
2026-05-04 13:19 52.49584 1.59331 36622 ft 468 kts 31°
2026-05-04 13:19 52.52361 1.62130 36941 ft 468 kts 31°
2026-05-04 13:20 52.55132 1.64925 37041 ft 467 kts 31°
2026-05-04 13:20 52.60651 1.70498 37048 ft 465 kts 31°
2026-05-04 13:21 52.66162 1.76059 37047 ft 465 kts 31°
2026-05-04 13:21 52.71670 1.81632 37042 ft 465 kts 31°
2026-05-04 13:22 52.77167 1.87232 37045 ft 463 kts 31°
2026-05-04 13:22 52.82633 1.92831 37045 ft 462 kts 31°
2026-05-04 13:23 52.88097 1.98422 37052 ft 462 kts 31°
2026-05-04 13:23 52.93564 2.04022 37039 ft 462 kts 31°
2026-05-04 13:24 52.99035 2.09655 37042 ft 463 kts 31°
2026-05-04 13:24 53.04507 2.15310 37053 ft 463 kts 31°
2026-05-04 13:25 53.12700 2.23808 37058 ft 462 kts 31°
2026-05-04 13:25 53.18156 2.29491 37058 ft 462 kts 31°
2026-05-04 13:26 53.23610 2.35180 37067 ft 462 kts 31°
2026-05-04 13:26 53.29052 2.40884 37070 ft 461 kts 31°
2026-05-04 13:27 53.34443 2.46554 37063 ft 461 kts 31°
2026-05-04 13:27 53.39861 2.52276 37060 ft 460 kts 31°
2026-05-04 13:28 53.45310 2.58054 37053 ft 460 kts 32°
2026-05-04 13:28 53.50674 2.63799 37042 ft 461 kts 32°
2026-05-04 13:29 53.56076 2.69622 37040 ft 462 kts 32°
2026-05-04 13:29 53.61485 2.75467 37040 ft 462 kts 32°
2026-05-04 13:30 53.66900 2.81311 37042 ft 462 kts 32°
2026-05-04 13:30 53.72311 2.87185 37061 ft 462 kts 32°
2026-05-04 13:31 53.77711 2.93060 37066 ft 461 kts 32°
2026-05-04 13:31 53.83102 2.98940 37071 ft 461 kts 32°
2026-05-04 13:32 53.88481 3.04827 37070 ft 460 kts 32°
2026-05-04 13:32 53.93851 3.10728 37070 ft 460 kts 32°
2026-05-04 13:33 53.99219 3.16628 37075 ft 459 kts 32°
2026-05-04 13:33 54.04579 3.22542 37069 ft 459 kts 32°
2026-05-04 13:34 54.09933 3.28481 37065 ft 459 kts 32°
2026-05-04 13:34 54.15286 3.34440 37067 ft 459 kts 32°
2026-05-04 13:35 54.23311 3.43404 37076 ft 459 kts 32°
2026-05-04 13:36 54.28611 3.49340 37077 ft 458 kts 32°
2026-05-04 13:36 54.33939 3.55329 37078 ft 458 kts 32°
2026-05-04 13:37 54.39259 3.61337 37073 ft 458 kts 32°
2026-05-04 13:37 54.44572 3.67359 37085 ft 457 kts 32°
2026-05-04 13:38 54.49881 3.73381 37079 ft 457 kts 32°
2026-05-04 13:38 54.55178 3.79409 37071 ft 457 kts 32°
2026-05-04 13:39 54.60482 3.85456 37066 ft 457 kts 32°
2026-05-04 13:39 54.65783 3.91528 37063 ft 457 kts 32°
2026-05-04 13:40 54.71082 3.97619 37076 ft 457 kts 32°
2026-05-04 13:40 54.76373 4.03722 37076 ft 457 kts 32°
2026-05-04 13:41 54.81655 4.09844 37075 ft 456 kts 32°
2026-05-04 13:41 54.86792 4.16304 37070 ft 457 kts 42°
2026-05-04 13:42 54.93309 4.28430 37076 ft 458 kts 46°
2026-05-04 13:42 54.97622 4.36578 37069 ft 458 kts 46°
2026-05-04 13:43 55.01923 4.44753 37060 ft 458 kts 46°
2026-05-04 13:43 55.06220 4.52957 37059 ft 458 kts 46°
2026-05-04 13:44 55.10513 4.61186 37056 ft 458 kts 46°
2026-05-04 13:44 55.14803 4.69433 37056 ft 459 kts 46°
2026-05-04 13:45 55.19087 4.77702 37070 ft 459 kts 46°
2026-05-04 13:45 55.23342 4.85937 37068 ft 459 kts 46°
2026-05-04 13:46 55.27625 4.94242 37060 ft 459 kts 46°
2026-05-04 13:46 55.31717 5.02842 37060 ft 460 kts 54°
2026-05-04 13:47 55.35373 5.12081 37052 ft 461 kts 54°
2026-05-04 13:47 55.39025 5.21338 37051 ft 461 kts 54°
2026-05-04 13:48 55.42674 5.30609 37054 ft 461 kts 54°
2026-05-04 13:48 55.46322 5.39899 37055 ft 461 kts 54°
2026-05-04 13:49 55.49969 5.49218 37048 ft 462 kts 54°
2026-05-04 13:49 55.53607 5.58563 37045 ft 462 kts 54°
2026-05-04 13:50 55.57242 5.67936 37041 ft 462 kts 54°
2026-05-04 13:50 55.60868 5.77327 37044 ft 463 kts 54°
2026-05-04 13:51 55.64494 5.86738 37064 ft 463 kts 54°
2026-05-04 13:51 55.68097 5.96115 37047 ft 464 kts 54°
2026-05-04 13:52 55.73527 6.10336 37037 ft 465 kts 54°
2026-05-04 13:53 55.77143 6.19849 37033 ft 465 kts 54°
2026-05-04 13:53 55.80756 6.29398 37032 ft 466 kts 54°
2026-05-04 13:54 55.85553 6.42147 37034 ft 466 kts 54°
2026-05-04 13:55 55.90948 6.56563 37029 ft 466 kts 55°
2026-05-04 13:55 55.96356 6.71084 37031 ft 466 kts 55°
2026-05-04 13:56 55.99913 6.80680 37032 ft 467 kts 55°
2026-05-04 13:57 56.05274 6.95214 37024 ft 467 kts 55°
2026-05-04 13:58 56.12400 7.14685 37034 ft 468 kts 55°
2026-05-04 13:58 56.17738 7.29362 37021 ft 469 kts 55°
2026-05-04 13:59 56.21293 7.39196 37012 ft 469 kts 55°
2026-05-04 14:00 56.26612 7.53981 37010 ft 470 kts 55°
2026-05-04 14:00 56.31925 7.68827 37009 ft 470 kts 56°
2026-05-04 14:01 56.35459 7.78759 37023 ft 471 kts 56°
2026-05-04 14:02 56.40757 7.93701 37005 ft 472 kts 56°
2026-05-04 14:02 56.44277 8.03710 37006 ft 472 kts 56°
2026-05-04 14:03 56.47791 8.13745 36997 ft 472 kts 56°
2026-05-04 14:03 56.51307 8.23801 36997 ft 473 kts 56°
2026-05-04 14:04 56.56565 8.38932 37010 ft 473 kts 56°
2026-05-04 14:04 56.60042 8.48981 36995 ft 474 kts 56°
2026-05-04 14:05 56.65276 8.64238 36976 ft 475 kts 56°
2026-05-04 14:06 56.68765 8.74445 36979 ft 475 kts 56°
2026-05-04 14:06 56.72251 8.84670 36974 ft 476 kts 56°
2026-05-04 14:07 56.75734 8.94914 36969 ft 476 kts 56°
2026-05-04 14:07 56.79205 9.05196 36980 ft 476 kts 56°
2026-05-04 14:08 56.82665 9.15510 36964 ft 477 kts 56°
2026-05-04 14:08 56.86129 9.25845 36956 ft 478 kts 56°
2026-05-04 14:09 56.91319 9.41413 36957 ft 478 kts 57°
2026-05-04 14:10 56.96486 9.57042 36951 ft 478 kts 57°
2026-05-04 14:10 56.99926 9.67482 36955 ft 478 kts 57°
2026-05-04 14:11 57.03364 9.77968 36741 ft 480 kts 57°
2026-05-04 14:11 57.06791 9.88489 36218 ft 479 kts 57°
2026-05-04 14:11 57.08503 9.93763 35456 ft 483 kts 57°
2026-05-04 14:12 57.10207 9.99112 34645 ft 488 kts 60°
2026-05-04 14:12 57.11647 10.04811 33811 ft 493 kts 64°
2026-05-04 14:12 57.14389 10.16380 32127 ft 492 kts 64°
2026-05-04 14:13 57.15745 10.22136 31461 ft 488 kts 64°
2026-05-04 14:13 57.17085 10.27840 30898 ft 482 kts 64°
2026-05-04 14:13 57.18408 10.33477 30308 ft 476 kts 63°
2026-05-04 14:13 57.19717 10.39049 29704 ft 471 kts 63°
2026-05-04 14:14 57.21005 10.44529 29141 ft 465 kts 63°
2026-05-04 14:14 57.23537 10.55362 28033 ft 455 kts 63°
2026-05-04 14:14 57.24775 10.60698 27496 ft 450 kts 63°
2026-05-04 14:15 57.27207 10.71217 26427 ft 441 kts 63°
2026-05-04 14:15 57.29614 10.81650 24692 ft 450 kts 64°
2026-05-04 14:16 57.32111 10.92512 22780 ft 459 kts 64°
2026-05-04 14:16 57.33342 10.97913 22161 ft 453 kts 64°
2026-05-04 14:17 57.35741 11.08482 20901 ft 444 kts 64°
2026-05-04 14:17 57.36927 11.13736 20255 ft 441 kts 64°
2026-05-04 14:17 57.39264 11.24106 19247 ft 431 kts 64°
2026-05-04 14:18 57.40412 11.29211 18719 ft 427 kts 65°
2026-05-04 14:18 57.42663 11.39287 17636 ft 419 kts 65°
2026-05-04 14:19 57.44859 11.49125 16617 ft 407 kts 65°
2026-05-04 14:19 57.45931 11.53945 16119 ft 401 kts 65°
2026-05-04 14:19 57.46984 11.58704 15630 ft 396 kts 65°
2026-05-04 14:19 57.48026 11.63418 15073 ft 393 kts 65°
2026-05-04 14:20 57.49065 11.68114 14443 ft 393 kts 65°
2026-05-04 14:20 57.50101 11.72802 13834 ft 392 kts 65°
2026-05-04 14:20 57.51129 11.77485 13193 ft 390 kts 65°
2026-05-04 14:21 57.53158 11.86790 11874 ft 386 kts 66°
2026-05-04 14:21 57.54189 11.91372 11328 ft 380 kts 61°
2026-05-04 14:21 57.55574 11.95479 10819 ft 370 kts 48°
2026-05-04 14:21 57.57337 11.98864 10349 ft 359 kts 35°
2026-05-04 14:22 57.59351 12.01409 10090 ft 342 kts 23°
2026-05-04 14:22 57.61427 12.03439 9886 ft 334 kts 22°
2026-05-04 14:22 57.63495 12.05465 9488 ft 335 kts 22°
2026-05-04 14:22 57.65546 12.07480 9009 ft 332 kts 22°
2026-05-04 14:23 57.69601 12.11464 8076 ft 326 kts 22°
2026-05-04 14:23 57.71597 12.13430 7618 ft 322 kts 22°
2026-05-04 14:23 57.73571 12.15376 7163 ft 319 kts 22°
2026-05-04 14:24 57.75523 12.17306 6711 ft 316 kts 22°
2026-05-04 14:24 57.77462 12.19226 6252 ft 314 kts 23°
2026-05-04 14:24 57.79384 12.21126 5801 ft 310 kts 23°
2026-05-04 14:24 57.81257 12.22976 5433 ft 300 kts 23°
2026-05-04 14:25 57.83074 12.24772 5057 ft 291 kts 23°
2026-05-04 14:25 57.86125 12.29410 4321 ft 288 kts 56°
2026-05-04 14:25 57.86830 12.32875 4021 ft 282 kts 78°
2026-05-04 14:26 57.86795 12.36467 3810 ft 273 kts 106°
2026-05-04 14:26 57.85942 12.39527 3647 ft 260 kts 135°
2026-05-04 14:26 57.84550 12.41498 3491 ft 244 kts 161°
2026-05-04 14:26 57.82979 12.42212 3337 ft 223 kts 185°
2026-05-04 14:27 57.81506 12.41831 3191 ft 208 kts 205°
2026-05-04 14:27 57.80222 12.40730 3051 ft 201 kts 213°
2026-05-04 14:27 57.78972 12.39581 2983 ft 201 kts 213°
2026-05-04 14:27 57.77724 12.38436 2782 ft 199 kts 212°
2026-05-04 14:28 57.76486 12.37303 2527 ft 196 kts 212°
2026-05-04 14:28 57.75272 12.36192 2278 ft 192 kts 212°
2026-05-04 14:28 57.74104 12.35124 2029 ft 181 kts 211°
2026-05-04 14:28 57.73019 12.34135 1784 ft 167 kts 212°
2026-05-04 14:29 57.71101 12.32386 1342 ft 136 kts 212°
2026-05-04 14:29 57.69514 12.30941 1006 ft 123 kts 213°
2026-05-04 14:30 57.68744 12.30237 806 ft 123 kts 212°
2026-05-04 14:30 57.67973 12.29522 641 ft 122 kts 212°
2026-05-04 14:30 57.66839 12.28484 513 ft 43 kts 207°
2026-05-04 14:31 57.66613 12.28277 512 ft 35 kts 205°
2026-05-04 14:31 57.66188 12.27920 509 ft 26 kts 171°
2026-05-04 14:32 57.66143 12.28197 510 ft 12 kts 31°
2026-05-04 14:32 57.66223 12.28271 510 ft 14 kts 26°
2026-05-04 14:32 57.66314 12.28356 511 ft 15 kts 26°
2026-05-04 14:32 57.66413 12.28448 511 ft 16 kts 25°
2026-05-04 14:33 57.66520 12.28544 512 ft 18 kts 26°
2026-05-04 14:33 57.66636 12.28650 512 ft 17 kts 26°
2026-05-04 14:33 57.66664 12.28759 514 ft 7 kts 111°
2026-05-04 14:33 57.66645 12.28829 516 ft 7 kts 117°
2026-05-04 14:34 57.66621 12.28922 516 ft 9 kts 115°
2026-05-04 14:34 57.66578 12.28973 516 ft 8 kts 167°
2026-05-04 14:34 57.66547 12.29055 516 ft 8 kts 114°
2026-05-04 14:34 57.66538 12.29087 516 ft 1 kts 117°
2026-05-04 14:35 57.66536 12.29095 516 ft 0 kts 117°